Vorticity
-1 -1 6 7 8 7 7 6 7 7 7 9 8 8 12 12 8 10 11 9 6 5
3 2 -1 -1 1 3 4 6 6 4 4 5 7 8 8 11 10 10 8 10 9 13
0 3 3 4 4 3 4 7 7 7 6 3 5 4 6 7 9 9 7 6 8 7
5 6 8 8 5 4 5 4 7 10 9 7 3 4 5 5 7 7 7 6 4 6
3 4 5 6 7 9 9 5 8 8 7 8 6 7 5 3 3 3 5 4 4 4
5 9 10 11 8 7 6 4 4 8 9 6 6 6 7 6 4 2 3 4 4 6
5 5 9 10 12 13 12 11 14 12 11 7 9 8 7 6 6 4 1 2 3 3
12 15 12 8 6 7 8 8 9 10 9 12 10 7 8 8 9 7 3 4 5 4
8 8 8 9 8 8 4 4 5 6 8 7 7 3 6 20 10 9 4 5 8 8
10 7 5 7 7 5 7 8 8 8 8 13 13 11 13 15 15 6 6 13 -0 12
7 10 9 9 3 9 13 10 8 5 4 4 5 8 7 14 12 15 5 4 7 9
9 9 10 7 4 3 5 5 6 5 4 5 10 12 6 8 19 8 3 -3 11 12
6 4 3 3 4 4 4 7 8 8 8 12 11 14 22 23 13 12 18 23 5 9
7 8 13 12 14 9 9 11 18 13 20 18 8 22 20 15 23 13 19 35 19 -4
Height
5750 5748 5745 5742 5739 5736 5731 5727 5723 5719 5715 5711 5706 5702 5698 5694 5689 5685 5682 5678 5674 5671
5743 5741 5738 5735 5731 5727 5724 5720 5715 5710 5706 5702 5698 5694 5690 5686 5682 5677 5674 5670 5666 5663
5735 5732 5729 5726 5722 5719 5715 5711 5707 5703 5698 5694 5690 5685 5682 5677 5673 5669 5665 5661 5657 5654
5726 5723 5719 5716 5712 5709 5705 5701 5697 5693 5690 5686 5681 5677 5673 5669 5664 5660 5655 5651 5647 5643
5716 5713 5709 5706 5702 5699 5695 5691 5687 5683 5679 5675 5671 5667 5664 5660 5656 5651 5646 5641 5637 5632
5705 5702 5698 5695 5691 5687 5684 5680 5676 5671 5667 5662 5658 5654 5651 5648 5645 5641 5636 5631 5626 5621
5694 5690 5686 5682 5678 5674 5671 5666 5662 5658 5655 5651 5648 5642 5636 5632 5629 5628 5624 5619 5614 5609
5682 5678 5674 5670 5666 5662 5657 5653 5649 5646 5642 5638 5634 5629 5625 5621 5615 5609 5607 5605 5601 5597
5670 5666 5662 5657 5652 5648 5643 5639 5636 5632 5628 5623 5618 5614 5611 5606 5603 5599 5592 5586 5585 5582
5656 5652 5647 5643 5638 5633 5628 5624 5620 5615 5611 5607 5602 5598 5595 5590 5585 5581 5578 5573 5568 5565
5642 5638 5632 5627 5622 5617 5612 5608 5604 5598 5593 5589 5584 5578 5574 5571 5568 5565 5561 5557 5553 5548
5625 5621 5615 5610 5605 5599 5595 5590 5585 5580 5576 5572 5569 5563 5557 5553 5550 5547 5544 5541 5537 5533
5609 5604 5598 5592 5586 5580 5574 5568 5563 5560 5557 5555 5551 5546 5542 5537 5533 5530 5528 5525 5521 5519
5592 5585 5578 5571 5564 5558 5552 5548 5545 5543 5540 5536 5533 5530 5527 5522 5519 5517 5513 5510 5508 5505